1502092800.7,47354,20.0,74288.3,3.29,3.75,3.89,0,*77
1502092801.93,47355,20.06,74288.8,3.27,3.71,3.81,0,*74
1502092803.11,47356,20.0,74288.8,3.29,3.63,3.63,0,*76
1502092804.35,47357,20.06,74292.5,3.27,3.49,3.49,0,*79
1502092805.55,47358,20.06,74288.8,3.29,3.53,3.55,0,*7E
1502092806.8,47359,20.0,74288.8,3.27,3.49,3.49,0,*77
1502092807.97,47360,20.06,74290.8,3.29,3.55,3.55,0,*73
1502092809.14,47361,20.0,74290.8,3.29,3.55,3.55,0,*72
1502092810.35,47362,20.06,74292.3,3.29,3.63,3.71,0,*72
1502092811.55,47363,20.06,74288.8,3.29,3.63,3.67,0,*74
1502092812.72,47364,20.06,74284.8,3.29,3.55,3.63,0,*72
1502092813.9,47365,20.06,74284.5,3.29,3.63,3.63,0,*76
1502092815.13,47366,20.0,74282.5,3.29,3.67,3.75,0,*76
1502092816.34,47367,20.0,74282.5,3.29,3.29,3.33,0,*7F
1502092817.6,47368,20.0,74284.0,3.31,3.15,3.15,0,*72
1502092818.85,47369,20.06,74284.3,3.31,2.73,2.81,0,*7E
1502092820.1,47370,20.0,74280.0,3.31,2.85,2.85,0,*7B
1502092821.33,47371,20.06,74284.0,3.27,3.15,3.25,0,*7E
1502092822.53,47372,20.06,74280.0,3.27,3.25,3.25,0,*7E
1502092823.76,47373,20.0,74282.5,3.29,3.33,3.33,0,*71
1502092824.96,47374,20.0,74282.8,3.29,3.19,3.25,0,*79
1502092826.15,47375,20.0,74286.5,3.29,3.25,3.25,0,*77
1502092827.35,47376,20.06,74286.3,3.29,3.33,3.29,0,*7F
1502092828.59,47377,20.0,74286.3,3.29,3.41,3.41,0,*75
1502092829.83,47378,20.0,74286.0,3.29,3.41,3.41,0,*7A
1502092831.06,47379,20.0,74284.8,3.29,3.45,3.45,0,*7B
1502092832.26,47380,20.06,74284.8,3.29,3.55,3.53,0,*7B
1502092833.5,47381,20.06,74286.0,3.29,3.41,3.41,0,*7C
1502092834.7,47382,20.06,74288.3,3.31,3.29,3.29,0,*76
1502092835.96,47383,20.0,74284.0,3.31,3.15,3.15,0,*77
1502092837.18,47384,20.06,74284.0,3.31,3.19,3.25,0,*7F
1502092838.4,47385,20.0,74284.8,3.31,3.33,3.25,0,*76
1502092839.64,47386,20.0,74286.3,3.29,3.03,3.03,0,*7B
1502092840.82,47387,20.06,74286.0,3.29,2.91,2.95,0,*7E
1502092842.0,47388,20.0,74286.3,3.29,2.95,2.95,0,*75
1502092843.23,47389,20.0,74280.5,3.29,3.03,3.03,0,*74
1502092844.43,47390,20.0,74282.0,3.29,2.85,2.91,0,*79
1502092845.65,47391,20.06,74280.8,3.29,2.81,2.61,0,*73
1502092846.86,47392,20.0,74280.0,3.29,2.59,2.61,0,*75
1502092848.09,47393,20.0,74280.0,3.29,2.59,2.59,0,*7F
1502092849.34,47394,20.0,74278.0,3.27,2.55,2.59,0,*7A
1502092850.59,47395,20.0,74276.3,3.27,2.59,2.59,0,*77
1502092851.81,47396,20.06,74280.5,3.25,2.69,2.69,0,*76
1502092853.03,47397,20.0,74280.0,3.25,2.69,2.77,0,*78
1502092854.26,47398,20.06,74282.3,3.25,2.59,2.59,0,*78
1502092855.48,47399,20.06,74280.0,3.21,2.55,2.55,0,*7D
1502092856.7,47400,20.0,74274.8,3.25,2.55,2.55,0,*7E
1502092857.93,47401,20.06,74282.3,3.25,2.51,2.55,0,*7B
1502092859.16,47402,20.0,74276.8,3.21,2.47,2.47,0,*78
1502092860.38,47403,20.0,74282.5,3.25,2.51,2.55,0,*79
1502092861.61,47404,20.06,74286.8,3.21,2.77,2.73,0,*7A
1502092862.83,47405,20.0,74282.0,3.21,2.77,2.77,0,*7F
1502092864.06,47406,20.0,74280.8,3.21,2.89,2.89,0,*7C
1502092865.3,47407,20.0,74282.0,3.21,3.07,3.07,0,*7D
1502092866.55,47408,20.0,74280.0,3.19,3.07,3.07,0,*79
1502092867.75,47409,20.0,74280.8,3.19,2.95,2.95,0,*78
1502092868.93,47410,20.0,74284.3,3.21,2.61,2.61,0,*7B
1502092870.14,47411,20.06,74286.5,3.21,2.55,2.61,0,*7D
1502092871.32,47412,20.0,74286.0,3.21,2.61,2.61,0,*79
1502092872.53,47413,20.06,74286.3,3.21,2.65,2.77,0,*7B
1502092873.76,47414,20.0,74280.5,3.19,2.95,2.89,0,*79
1502092874.98,47415,20.06,74284.5,3.19,2.89,2.95,0,*78
1502092876.23,47416,20.0,74282.3,3.19,2.85,2.85,0,*76
1502092877.41,47417,20.0,74280.5,3.21,2.61,2.61,0,*7C
1502092878.64,47418,20.0,74280.5,3.21,2.51,2.39,0,*7D
1502092879.89,47419,20.06,74282.8,3.19,2.13,2.17,0,*7D
1502092881.15,47420,20.0,74280.8,3.19,2.13,2.13,0,*73
1502092882.37,47421,20.0,74282.0,3.17,2.09,2.09,0,*7C
1502092883.59,47422,20.0,74284.0,3.15,2.39,2.31,0,*75
1502092884.84,47423,20.0,74280.8,3.15,2.09,2.09,0,*7C
1502092886.08,47424,20.06,74284.0,3.15,2.05,1.97,0,*73
1502092887.31,47425,20.0,74280.8,3.13,2.09,2.17,0,*73
1502092888.54,47426,20.0,74282.0,3.13,1.97,2.05,0,*77
1502092889.77,47427,20.06,74284.3,3.13,1.97,1.97,0,*7E
1502092890.99,47428,20.0,74282.0,3.13,2.21,2.09,0,*7B
1502092892.22,47429,20.06,74280.8,3.13,2.39,2.39,0,*70
1502092893.46,47430,20.0,74284.8,3.13,2.17,2.09,0,*77
1502092894.68,47431,20.0,74284.5,3.13,1.97,1.97,0,*79
1502092895.91,47432,20.06,74284.8,3.11,2.39,2.35,0,*74
1502092897.15,47433,20.0,74280.8,3.11,2.55,2.55,0,*79
1502092898.41,47434,20.0,74282.8,3.11,2.43,2.43,0,*7E
1502092899.66,47435,20.06,74280.5,3.11,2.39,2.39,0,*7F
1502092900.89,47436,20.06,74280.8,3.13,2.43,2.43,0,*7E
1502092902.12,47437,20.06,74280.0,3.13,2.09,2.05,0,*73
1502092903.31,47438,20.0,74280.5,3.09,1.83,1.89,0,*71
1502092904.53,47439,20.06,74284.0,3.09,1.71,1.71,0,*7A
1502092905.74,47440,20.0,74280.3,3.09,1.93,1.89,0,*7F
1502092906.97,47441,20.0,74278.0,3.09,2.05,2.05,0,*75
1502092908.19,47442,20.06,74278.0,3.09,2.13,2.05,0,*71
1502092909.41,47443,20.0,74272.0,3.05,1.89,1.89,0,*7B
1502092910.64,47444,20.06,74274.5,3.07,1.85,1.75,0,*71
1502092911.85,47445,20.0,74276.0,3.05,1.75,1.67,0,*7E
1502092913.05,47446,20.06,74274.8,3.05,1.67,1.75,0,*7D
1502092914.28,47447,20.0,74272.8,3.05,2.09,2.09,0,*7F
1502092915.51,47448,20.0,74272.5,3.01,2.25,2.25,0,*74
1502092916.75,47449,20.06,74278.8,3.01,2.17,2.13,0,*71
1502092917.92,47450,20.06,74282.8,3.01,1.83,1.79,0,*78
1502092919.15,47451,20.06,74280.5,3.01,2.01,2.05,0,*78
1502092920.38,47452,20.0,74276.3,3.01,2.17,2.25,0,*7E
1502092921.58,47453,20.0,74280.0,3.01,2.39,2.31,0,*76
1502092922.76,47454,20.0,74278.8,3.01,2.27,2.27,0,*79
1502092923.99,47455,20.0,74278.0,3.01,2.13,2.13,0,*78
1502092925.24,47456,20.0,74276.5,2.97,2.25,2.25,0,*75
1502092926.42,47457,20.0,74276.3,3.01,2.27,2.27,0,*7A
1502092927.62,47458,20.06,74278.3,3.01,2.27,2.25,0,*77
1502092928.83,47459,20.06,74280.5,2.97,2.27,2.27,0,*7A
1502092930.0,47460,20.0,74274.5,3.01,2.27,2.27,0,*7E
1502092931.19,47461,20.06,74272.0,3.01,2.61,2.61,0,*7F
1502092932.44,47462,20.06,74276.0,2.97,2.43,2.43,0,*72
1502092933.62,47463,20.06,74274.3,3.01,2.27,2.27,0,*7D
1502092934.86,47464,20.06,74272.0,3.01,2.17,2.13,0,*7E
1502092936.05,47465,20.0,74272.5,3.01,1.83,1.89,0,*71
1502092937.28,47466,20.0,74272.3,2.97,1.93,1.83,0,*77
1502092938.54,47467,20.06,74276.3,2.97,2.05,2.01,0,*73
1502092939.76,47468,20.0,74276.0,2.97,2.39,2.31,0,*70
1502092940.99,47469,20.0,74276.5,3.01,2.55,2.55,0,*77
1502092942.24,47470,20.0,74278.3,2.97,2.77,2.77,0,*71
1502092943.47,47471,20.06,74282.5,3.01,2.89,2.89,0,*7E
1502092944.67,47472,20.0,74280.8,3.01,2.89,2.95,0,*70
1502092945.87,47473,20.0,74280.8,3.01,2.89,2.95,0,*71
1502092947.07,47474,20.06,74284.3,3.01,2.95,3.03,0,*75
1502092948.31,47475,20.06,74284.5,3.05,3.11,3.07,0,*79
1502092949.54,47476,20.06,74284.5,3.05,3.11,3.11,0,*7D
1502092950.77,47477,20.0,74286.0,3.05,3.11,3.11,0,*7C
1502092952.03,47478,20.06,74286.0,3.07,3.07,3.07,0,*71
1502092953.29,47479,20.0,74286.8,3.07,3.03,3.07,0,*74
1502092954.52,47480,20.0,74284.8,3.09,3.15,3.15,0,*78
1502092955.76,47481,20.0,74284.8,3.09,3.15,3.15,0,*79
1502092956.99,47482,20.06,74286.3,3.09,3.15,3.23,0,*7F
1502092958.21,47483,20.06,74282.3,3.09,3.23,3.23,0,*7B
1502092959.44,47484,20.06,74282.3,3.09,3.07,3.15,0,*7F
1502092960.67,47485,20.06,74280.5,3.09,3.07,3.07,0,*7D
1502092961.89,47486,20.0,74280.8,3.11,2.89,2.95,0,*7A
1502092963.12,47487,20.0,74280.5,3.11,2.89,2.99,0,*77
1502092964.31,47488,20.0,74286.3,3.11,2.99,2.99,0,*79
1502092965.54,47489,20.0,74284.5,3.11,2.99,3.07,0,*7E
1502092966.8,47490,20.06,74284.8,3.11,3.15,3.15,0,*70
1502092968.02,47491,20.06,74284.8,3.13,3.19,3.19,0,*73
1502092969.25,47492,20.06,74284.5,3.13,3.19,3.15,0,*7C
1502092970.5,47493,20.06,74284.0,3.15,3.15,3.19,0,*7B
1502092971.72,47494,20.0,74284.5,3.13,3.11,3.19,0,*7E
1502092972.97,47495,20.06,74290.5,3.15,3.11,3.11,0,*71
1502092974.21,47496,20.06,74292.0,3.15,3.19,3.19,0,*72
1502092975.46,47497,20.06,74290.5,3.15,3.19,3.15,0,*7F
1502092976.7,47498,20.0,74288.3,3.15,3.19,3.19,0,*7C
1502092977.9,47499,20.0,74288.5,3.15,3.25,3.29,0,*71
1502092979.1,47500,20.0,74290.0,3.17,3.33,3.29,0,*75
1502092980.35,47501,20.0,74286.8,3.19,3.37,3.45,0,*74
1502092981.6,47502,20.0,74282.3,3.19,3.23,3.19,0,*7B
1502092982.84,47503,20.06,74282.8,3.17,3.07,3.07,0,*7D
1502092984.03,47504,20.0,74282.5,3.19,2.99,2.99,0,*74
1502092985.26,47505,20.0,74280.8,3.17,2.69,2.73,0,*70
1502092986.52,47506,20.0,74284.3,3.19,2.51,2.51,0,*76
1502092987.74,47507,20.06,74288.0,3.17,2.55,2.47,0,*7A
1502092988.94,47508,20.0,74286.5,3.17,2.25,2.35,0,*77
1502092990.19,47509,20.0,74286.0,3.19,2.39,2.39,0,*79
1502092991.37,47510,20.0,74282.0,3.17,2.35,2.35,0,*7F
1502092992.61,47511,20.06,74282.3,3.15,2.21,2.17,0,*79
1502092993.87,47512,20.0,74280.0,3.15,2.39,2.39,0,*7F
1502092995.1,47513,20.0,74278.0,3.13,2.43,2.39,0,*75
1502092996.35,47514,20.06,74280.5,3.15,2.43,2.43,0,*79
1502092997.57,47515,20.0,74280.5,3.13,2.55,2.47,0,*7D
1502092998.82,47516,20.0,74278.0,3.15,2.81,2.77,0,*72
1502093000.06,47517,20.0,74276.8,3.13,2.81,2.81,0,*7C
1502093001.28,47518,20.0,74280.8,3.15,2.65,2.69,0,*79
1502093002.48,47519,20.0,74282.0,3.13,2.69,2.65,0,*7E
1502093003.73,47520,20.0,74280.0,3.15,2.89,2.81,0,*76
1502093004.93,47521,20.06,74288.5,3.15,2.99,2.99,0,*7F
1502093006.12,47522,20.0,74284.8,3.15,2.99,2.99,0,*7C
1502093007.35,47523,20.0,74284.3,3.15,2.89,2.91,0,*74
1502093008.54,47524,20.0,74282.5,3.15,2.91,2.91,0,*7A
1502093009.79,47525,20.0,74284.3,3.15,2.89,2.81,0,*73
1502093011.04,47526,20.0,74282.5,3.15,2.43,2.43,0,*78
1502093012.24,47527,20.0,74284.8,3.15,2.31,2.31,0,*79
1502093013.46,47528,20.0,74280.3,3.13,2.21,2.17,0,*75
1502093014.64,47529,20.06,74286.3,3.13,2.31,2.27,0,*76
1502093015.89,47530,20.0,74282.3,3.15,2.55,2.59,0,*73
1502093017.13,47531,20.0,74282.0,3.15,2.69,2.77,0,*71
1502093018.34,47532,20.0,74282.5,3.13,2.31,2.39,0,*73
1502093019.59,47533,20.0,74286.0,3.11,2.05,2.13,0,*7F
1502093020.84,47534,20.0,74286.0,3.11,2.01,1.93,0,*77
1502093022.08,47535,20.0,74286.0,3.11,2.05,2.01,0,*7A
1502093023.34,47536,20.0,74284.3,3.11,2.13,2.17,0,*79
1502093024.54,47537,20.0,74288.3,3.09,2.27,2.25,0,*77
1502093025.77,47538,20.0,74288.8,3.09,2.17,2.05,0,*79
1502093026.99,47539,20.0,74282.5,3.09,2.01,1.93,0,*73
1502093028.2,47540,20.0,74286.0,3.09,1.93,1.89,0,*7E
1502093029.42,47541,20.0,74284.8,3.09,1.89,1.93,0,*7F
1502093030.59,47542,20.0,74284.8,3.09,1.83,1.83,0,*77
1502093031.81,47543,20.0,74286.8,3.05,1.89,1.89,0,*7A
1502093033.02,47544,20.0,74288.5,3.07,1.79,1.79,0,*7F
1502093034.24,47545,20.0,74288.5,3.05,1.67,1.63,0,*78
1502093035.48,47546,20.06,74288.5,3.05,1.89,1.85,0,*73
1502093036.66,47547,20.0,74284.3,3.05,1.79,1.75,0,*72
1502093037.88,47548,20.06,74288.0,3.01,2.01,2.01,0,*75
1502093039.11,47549,20.0,74284.3,3.01,2.01,2.01,0,*74
1502093040.31,47550,20.0,74286.0,3.01,1.79,1.71,0,*74
1502093041.56,47551,20.06,74288.3,2.97,1.71,1.71,0,*73
1502093042.81,47552,20.06,74288.0,2.97,1.55,1.47,0,*73
1502093044.05,47553,20.0,74286.0,2.97,1.71,1.79,0,*79
1502093045.31,47554,20.0,74286.8,2.97,2.13,2.13,0,*76
1502093046.51,47555,20.0,74290.8,2.97,2.31,2.27,0,*70
1502093047.76,47556,20.06,74290.3,2.97,2.05,2.05,0,*74
1502093048.99,47557,20.0,74286.8,2.95,2.01,2.01,0,*77
1502093050.16,47558,20.0,74290.8,2.95,2.35,2.27,0,*7B
1502093051.33,47559,20.0,74288.5,2.95,2.27,2.27,0,*79
1502093052.56,47560,20.0,74286.8,2.95,2.01,2.01,0,*73
1502093053.78,47561,20.0,74290.0,2.95,1.89,1.97,0,*7D
1502093054.97,47562,20.0,74290.0,2.95,1.79,1.67,0,*7E
1502093056.22,47563,20.0,74286.3,2.93,2.01,1.97,0,*7A
1502093057.44,47564,20.0,74290.0,2.95,1.89,1.97,0,*78
1502093058.68,47565,20.0,74288.0,2.93,1.89,1.89,0,*70
1502093059.88,47566,20.0,74286.8,2.93,1.75,1.75,0,*73
1502093061.08,47567,20.0,74290.3,2.93,1.79,1.79,0,*72
1502093062.32,47568,20.0,74288.8,2.93,1.67,1.63,0,*79
1502093063.58,47569,20.0,74286.8,2.93,1.55,1.51,0,*78
1502093064.77,47570,20.0,74286.0,2.91,1.47,1.41,0,*70
1502093066.02,47571,20.0,74286.8,2.89,1.43,1.43,0,*7E
1502093067.24,47572,20.06,74288.8,2.89,1.83,1.89,0,*77
1502093068.47,47573,20.0,74286.0,2.89,1.89,1.83,0,*76
1502093069.71,47574,20.0,74288.0,2.89,1.89,1.89,0,*7B
1502093070.96,47575,20.0,74286.3,2.89,1.93,1.89,0,*71
1502093072.21,47576,20.0,74284.8,2.89,1.71,1.67,0,*7E
1502093073.44,47577,20.0,74286.3,2.89,1.79,1.67,0,*77
1502093074.67,47578,20.0,74280.8,2.89,1.79,1.71,0,*7F
1502093075.9,47579,20.0,74284.8,2.87,1.93,2.01,0,*70
1502093077.13,47580,20.0,74282.0,2.87,2.13,2.13,0,*7E
1502093078.33,47581,20.06,74288.3,2.87,1.89,1.83,0,*75
1502093079.56,47582,20.0,74290.8,2.87,1.71,1.67,0,*7B
1502093080.79,47583,20.0,74288.5,2.87,2.01,2.01,0,*7D
1502093082.01,47584,20.06,74292.0,2.87,2.21,2.21,0,*7A
1502093083.27,47585,20.0,74288.5,2.85,2.17,2.17,0,*79
1502093084.48,47586,20.0,74290.3,2.87,2.31,2.39,0,*70
1502093085.71,47587,20.0,74292.0,2.87,2.43,2.51,0,*7A
1502093086.95,47588,20.0,74290.0,2.87,2.43,2.51,0,*75
1502093088.18,47589,20.0,74290.3,2.87,2.43,2.43,0,*77
1502093089.45,47590,20.0,74288.0,2.89,2.43,2.51,0,*72
1502093090.69,47591,20.0,74292.0,2.89,2.21,2.21,0,*70
1502093091.92,47592,20.0,74294.0,2.87,2.21,2.17,0,*78
1502093093.16,47593,20.0,74292.3,2.87,2.17,2.17,0,*7C
1502093094.38,47594,20.06,74296.0,2.89,1.83,1.89,0,*7F
1502093095.63,47595,20.0,74292.5,2.89,1.59,1.59,0,*74
1502093096.88,47596,20.06,74300.3,2.89,1.93,1.93,0,*77
1502093098.11,47597,20.06,74296.0,2.87,1.93,2.01,0,*70
1502093099.35,47598,20.0,74292.8,2.85,1.89,1.89,0,*75
1502093100.6,47599,20.0,74296.3,2.85,1.89,1.97,0,*7B
1502093101.83,47600,20.0,74292.0,2.87,1.93,2.01,0,*7D
1502093103.08,47601,20.0,74296.0,2.85,2.09,2.01,0,*7E
1502093104.33,47602,20.0,74294.8,2.85,1.89,1.89,0,*75
1502093105.58,47603,20.0,74292.5,2.85,2.09,2.09,0,*74
1502093106.84,47604,20.06,74296.5,2.85,2.09,2.09,0,*73
1502093108.04,47605,20.06,74294.3,2.87,1.79,1.71,0,*78
1502093109.29,47606,20.0,74298.3,2.85,1.63,1.63,0,*71
1502093110.54,47607,20.06,74296.0,2.85,1.63,1.55,0,*75
1502093111.8,47608,20.0,74294.5,2.85,2.09,2.01,0,*77
1502093113.05,47609,20.0,74294.3,2.85,2.09,2.09,0,*7E
1502093114.28,47610,20.0,74290.3,2.83,2.01,2.01,0,*70
1502093115.49,47611,20.0,74292.0,2.83,1.75,1.67,0,*72
1502093116.72,47612,20.0,74294.0,2.83,1.55,1.55,0,*72
1502093117.95,47613,20.0,74290.8,2.83,1.33,1.43,0,*74
1502093119.13,47614,20.0,74288.8,2.83,1.75,1.75,0,*74
1502093120.38,47615,20.0,74288.5,2.81,1.51,1.47,0,*70
1502093121.64,47616,20.0,74288.5,2.81,1.63,1.59,0,*7D
1502093122.89,47617,20.06,74294.5,2.81,1.51,1.51,0,*75
1502093124.09,47618,20.0,74290.3,2.79,1.47,1.41,0,*7B
1502093125.3,47619,20.0,74292.8,2.79,1.37,1.41,0,*7D
1502093126.48,47620,20.06,74292.5,2.79,1.75,1.83,0,*7F
1502093127.71,47621,20.06,74294.5,2.79,1.97,1.93,0,*73
1502093128.94,47622,20.06,74292.8,2.79,1.63,1.63,0,*74
1502093130.17,47623,20.0,74294.5,2.75,1.63,1.67,0,*7D
1502093131.35,47624,20.0,74290.5,2.75,1.79,1.79,0,*7E
1502093132.58,47625,20.0,74288.0,2.79,1.63,1.59,0,*7A
1502093133.8,47626,20.0,74288.5,2.75,1.43,1.43,0,*7C
1502093135.03,47627,20.06,74294.3,2.75,1.43,1.43,0,*7D
1502093136.26,47628,20.06,74290.0,2.75,1.47,1.55,0,*71
1502093137.48,47629,20.0,74286.5,2.75,1.43,1.43,0,*73
1502093138.74,47630,20.0,74286.8,2.73,1.55,1.55,0,*7D
1502093140.01,47631,20.06,74286.5,2.73,1.33,1.29,0,*77
1502093141.25,47632,20.06,74284.0,2.71,1.13,1.13,0,*7D
1502093142.45,47633,20.0,74282.0,2.73,1.41,1.41,0,*7E
1502093143.68,47634,20.0,74284.8,2.71,1.33,1.29,0,*70
1502093144.89,47635,20.0,74284.5,2.71,1.41,1.33,0,*7F
1502093146.11,47636,20.0,74286.8,2.71,1.51,1.51,0,*79
1502093147.34,47637,20.0,74290.8,2.71,1.51,1.51,0,*78
1502093148.58,47638,20.06,74288.8,2.69,1.59,1.59,0,*7E
1502093149.84,47639,20.06,74288.0,2.69,1.71,1.71,0,*7F
1502093151.06,47640,20.06,74288.8,2.69,1.75,1.71,0,*75
1502093152.31,47641,20.06,74290.5,2.69,1.59,1.59,0,*70
1502093153.56,47642,20.06,74290.3,2.67,1.63,1.63,0,*7D
1502093154.76,47643,20.06,74294.5,2.67,1.83,1.83,0,*7C
1502093155.97,47644,20.0,74292.0,2.69,1.83,1.83,0,*75
1502093157.22,47645,20.0,74294.0,2.69,1.93,1.93,0,*74
1502093158.48,47646,20.0,74294.5,2.69,1.97,2.01,0,*7B
1502093159.73,47647,20.06,74292.0,2.69,2.01,2.01,0,*76
1502093160.99,47648,20.0,74290.5,2.69,2.09,2.09,0,*79
1502093162.25,47649,20.0,74286.5,2.69,2.13,2.13,0,*78
1502093163.5,47650,20.06,74286.8,2.69,2.13,2.21,0,*71
1502093164.73,47651,20.0,74286.0,2.71,1.55,1.67,0,*79
1502093165.98,47652,20.06,74286.5,2.69,1.71,1.71,0,*72
1502093167.22,47653,20.06,74286.8,2.71,1.85,1.85,0,*7A
1502093168.45,47654,20.0,74286.8,2.71,1.63,1.63,0,*7D
1502093169.69,47655,20.0,74284.3,2.69,1.47,1.47,0,*75
1502093170.95,47656,20.0,74284.8,2.69,1.63,1.71,0,*75
1502093172.2,47657,20.06,74284.5,2.69,1.85,1.93,0,*70
1502093173.46,47658,20.0,74284.3,2.69,1.97,1.93,0,*7C
1502093174.69,47659,20.06,74286.0,2.69,1.85,1.83,0,*7F
1502093175.95,47660,20.0,74284.3,2.69,1.63,1.63,0,*73
1502093177.17,47661,20.06,74290.5,2.67,1.41,1.47,0,*7A
1502093178.41,47662,20.06,74288.0,2.67,1.47,1.47,0,*7F
1502093179.66,47663,20.0,74288.8,2.67,1.47,1.51,0,*79
1502093180.91,47664,20.06,74284.5,2.67,1.71,1.71,0,*79
1502093182.15,47665,20.06,74286.0,2.67,1.63,1.59,0,*71
1502093183.41,47666,20.0,74282.0,2.67,1.37,1.37,0,*7B
1502093184.67,47667,20.0,74286.5,2.67,1.29,1.29,0,*7A
1502093185.93,47668,20.0,74286.8,2.63,1.29,1.29,0,*71
1502093187.13,47669,20.0,74286.5,2.63,1.79,1.75,0,*7C
1502093188.32,47670,20.06,74284.5,2.65,1.83,1.89,0,*74
1502093189.56,47671,20.0,74282.5,2.65,1.97,2.05,0,*77
1502093190.78,47672,20.06,74286.8,2.65,2.05,2.05,0,*7C
1502093192.03,47673,20.0,74278.3,2.67,1.85,1.93,0,*78
1502093193.28,47674,20.06,74280.0,2.67,1.93,1.93,0,*78
1502093194.5,47675,20.0,74276.3,2.65,1.89,1.89,0,*7B
1502093195.72,47676,20.06,74276.0,2.65,2.21,2.21,0,*78
1502093196.9,47677,20.0,74276.3,2.65,2.31,2.31,0,*79
1502093198.07,47678,20.0,74280.3,2.65,2.27,2.27,0,*76
1502093199.3,47679,20.0,74282.3,2.65,1.93,1.93,0,*77
1502093200.52,47680,20.0,74276.8,2.65,1.71,1.71,0,*71
1502093201.74,47681,20.0,74280.3,2.65,1.59,1.67,0,*7D
1502093202.99,47682,20.0,74284.0,2.67,1.51,1.51,0,*71
1502093204.24,47683,20.06,74278.0,2.69,1.59,1.59,0,*7E
1502093205.49,47684,20.0,74280.3,2.67,1.93,1.93,0,*77
1502093206.67,47685,20.0,74280.5,2.65,1.83,1.83,0,*74
1502093207.85,47686,20.0,74286.0,2.65,1.79,1.83,0,*72
1502093209.06,47687,20.06,74286.8,2.65,1.85,1.83,0,*70
1502093210.27,47688,20.0,74288.5,2.65,1.89,1.89,0,*79
1502093211.52,47689,20.0,74284.8,2.63,2.01,1.93,0,*76
1502093212.7,47690,20.0,74280.5,2.65,2.27,2.27,0,*70
1502093213.95,47691,20.06,74282.5,2.67,2.09,2.13,0,*78
1502093215.2,47692,20.0,74280.8,2.67,1.97,1.97,0,*70
1502093216.45,47693,20.0,74282.8,2.67,1.93,1.97,0,*75
1502093217.71,47694,20.0,74278.3,2.67,1.85,1.85,0,*76
1502093218.93,47695,20.0,74276.8,2.65,1.89,1.89,0,*75
1502093220.18,47696,20.0,74278.0,2.67,2.01,2.01,0,*74
1502093221.43,47697,20.0,74282.5,2.67,2.13,2.05,0,*72
1502093222.66,47698,20.0,74280.8,2.65,2.21,2.17,0,*7D
1502093223.88,47699,20.06,74286.0,2.65,1.93,1.93,0,*79
1502093225.1,47700,20.0,74284.3,2.65,1.93,1.89,0,*73
1502093226.34,47701,20.0,74284.5,2.67,1.85,1.83,0,*7D
1502093227.55,47702,20.0,74284.3,2.65,1.89,1.89,0,*7A
1502093228.78,47703,20.06,74290.5,2.65,1.93,1.97,0,*7F
1502093230.01,47704,20.06,74286.8,2.67,2.31,2.25,0,*7B
1502093231.26,47705,20.06,74286.5,2.67,2.25,2.25,0,*7F
1502093232.5,47706,20.06,74286.5,2.67,2.21,2.21,0,*7C
1502093233.75,47707,20.0,74284.8,2.67,2.47,2.47,0,*7D
1502093234.98,47708,20.0,74282.3,2.67,2.65,2.69,0,*7E
1502093236.21,47709,20.0,74282.3,2.69,2.65,2.69,0,*71
1502093237.47,47710,20.0,74280.3,2.69,2.69,2.73,0,*7E
1502093238.7,47711,20.06,74284.3,2.69,2.55,2.65,0,*77
1502093239.93,47712,20.06,74288.3,2.71,2.47,2.39,0,*77
1502093241.17,47713,20.0,74288.8,2.71,2.47,2.39,0,*76
1502093242.4,47714,20.0,74288.5,2.71,2.39,2.39,0,*78
1502093243.66,47715,20.06,74290.8,2.73,2.51,2.59,0,*73
1502093244.88,47716,20.06,74294.3,2.71,2.73,2.69,0,*71
1502093246.14,47717,20.0,74296.5,2.73,2.85,2.89,0,*75
1502093247.35,47718,20.06,74306.5,2.73,2.95,2.95,0,*76
1502093248.59,47719,20.06,74302.0,2.73,2.99,3.07,0,*71
1502093249.83,47720,20.0,74300.0,2.75,3.11,3.15,0,*7F
1502093251.01,47721,20.0,74296.8,2.79,3.25,3.29,0,*7A
1502093252.19,47722,20.06,74296.5,2.79,3.25,3.29,0,*79
1502093253.4,47723,20.0,74288.0,2.79,3.19,3.25,0,*7B
1502093254.63,47724,20.0,74284.3,2.83,3.07,3.07,0,*76
1502093255.88,47725,20.06,74292.8,2.81,3.19,3.19,0,*75
1502093257.12,47726,20.0,74290.8,2.81,3.19,3.25,0,*79
1502093258.35,47727,20.06,74292.8,2.83,3.33,3.33,0,*75
1502093259.6,47728,20.0,74292.5,2.85,3.33,3.45,0,*7D
1502093260.83,47729,20.06,74294.0,2.87,3.49,3.49,0,*7F
1502093262.03,47730,20.0,74294.5,2.87,3.45,3.55,0,*76
1502093263.26,47731,20.06,74292.0,2.87,3.45,3.49,0,*7A
1502093264.52,47732,20.06,74294.3,2.89,3.49,3.49,0,*7B
1502093265.75,47733,20.06,74294.3,2.89,3.25,3.33,0,*7D
1502093266.99,47734,20.06,74292.8,2.91,3.15,3.15,0,*74
1502093268.21,47735,20.0,74292.3,2.91,3.19,3.19,0,*75
1502093269.45,47736,20.0,74290.5,2.91,3.15,3.15,0,*76
1502093270.71,47737,20.0,74292.0,2.93,3.07,3.07,0,*75
1502093271.96,47738,20.06,74296.5,2.93,3.11,3.07,0,*7D
1502093273.21,47739,20.0,74292.3,2.93,3.07,3.11,0,*7C
1502093274.45,47740,20.06,74296.5,2.95,3.07,3.07,0,*73
1502093275.68,47741,20.0,74292.0,2.93,3.07,2.99,0,*72
1502093276.91,47742,20.06,74296.5,2.93,3.07,2.99,0,*71
1502093278.11,47743,20.0,74286.0,2.97,2.91,2.95,0,*76
1502093279.31,47744,20.0,74284.5,2.93,2.91,2.91,0,*71
1502093280.49,47745,20.0,74286.0,2.95,2.91,2.91,0,*76
1502093281.74,47746,20.06,74288.5,2.97,2.85,2.85,0,*77
1502093282.96,47747,20.0,74288.5,2.95,2.85,2.85,0,*74
1502093284.18,47748,20.0,74292.0,2.95,2.81,2.85,0,*7F
1502093285.38,47749,20.0,74288.8,2.95,2.85,2.91,0,*7F
1502093286.6,47750,20.0,74292.5,2.95,2.85,2.85,0,*72
1502093287.82,47751,20.06,74298.0,2.95,2.85,2.85,0,*73
1502093288.99,47752,20.06,74298.3,2.95,2.99,2.99,0,*70
1502093290.25,47753,20.06,74294.5,2.97,3.03,3.11,0,*70
1502093291.48,47754,20.06,74294.0,2.97,2.99,3.03,0,*76
1502093292.69,47755,20.0,74292.5,2.97,2.99,2.95,0,*79
1502093293.94,47756,20.0,74290.0,2.97,2.89,2.89,0,*76
1502093295.17,47757,20.0,74288.0,3.01,2.89,2.89,0,*79
1502093296.39,47758,20.06,74292.8,3.01,2.73,2.77,0,*72
1502093297.64,47759,20.0,74292.0,2.97,2.85,2.85,0,*79
1502093298.88,47760,20.0,74294.0,2.97,2.99,3.03,0,*71
1502093300.11,47761,20.0,74294.0,3.01,3.03,3.11,0,*7F
1502093301.34,47762,20.06,74296.3,3.01,3.03,3.03,0,*7F
1502093302.57,47763,20.0,74292.3,3.01,3.11,3.15,0,*7A
1502093303.81,47764,20.06,74294.0,3.01,3.15,3.15,0,*79
1502093304.99,47765,20.06,74294.0,3.01,2.95,2.99,0,*74
1502093306.19,47766,20.06,74292.0,3.01,2.61,2.55,0,*7C
1502093307.42,47767,20.0,74294.8,3.01,2.43,2.43,0,*7A
1502093308.65,47768,20.06,74296.3,3.01,2.43,2.55,0,*72
1502093309.82,47769,20.0,74292.8,3.01,2.31,2.31,0,*74
1502093311.05,47770,20.06,74298.5,3.01,2.43,2.43,0,*7C
1502093312.31,47771,20.06,74296.0,2.97,2.51,2.55,0,*77
1502093313.56,47772,20.06,74292.3,2.97,2.73,2.73,0,*70
1502093314.78,47773,20.0,74294.0,3.01,2.85,2.85,0,*7F
1502093316.01,47774,20.0,74294.8,3.01,2.89,2.89,0,*78
1502093317.24,47775,20.0,74298.8,3.01,2.89,2.89,0,*79
1502093318.46,47776,20.06,74298.0,3.01,2.85,2.85,0,*7A
1502093319.69,47777,20.06,74298.0,3.01,2.89,2.89,0,*7B
1502093320.91,47778,20.06,74292.8,3.01,2.85,2.89,0,*78
1502093322.14,47779,20.06,74294.0,3.05,2.85,2.85,0,*71
1502093323.36,47780,20.06,74290.8,3.05,2.69,2.69,0,*77
1502093324.6,47781,20.06,74284.8,3.05,2.73,2.81,0,*7B
1502093325.83,47782,20.0,74282.8,3.05,2.59,2.59,0,*75
1502093327.07,47783,20.0,74294.0,3.05,2.51,2.51,0,*74
1502093328.3,47784,20.06,74290.8,3.01,2.39,2.39,0,*77
1502093329.56,47785,20.06,74288.0,2.97,2.39,2.43,0,*75
1502093330.79,47786,20.0,74290.8,3.01,2.39,2.39,0,*75
1502093332.02,47787,20.0,74290.3,3.01,2.51,2.43,0,*77
1502093333.27,47788,20.0,74288.8,2.97,2.89,2.77,0,*74
1502093334.5,47789,20.06,74294.5,3.01,2.85,2.85,0,*7A
1502093335.72,47790,20.0,74294.0,3.01,2.85,2.77,0,*7F
1502093336.95,47791,20.0,74294.5,3.01,2.89,2.89,0,*73
1502093338.18,47792,20.06,74296.8,3.05,3.11,3.07,0,*73
1502093339.42,47793,20.06,74300.5,3.05,3.11,3.11,0,*75
1502093340.64,47794,20.0,74296.3,3.05,3.19,3.23,0,*7B
1502093341.89,47795,20.06,74302.8,3.07,3.19,3.19,0,*71